Regional Weather Roundup
Issued by NWS Jackson, KY

Home | Current Version | Previous Version | Graphics & Text | Print | Product List | Glossary On
Versions: 1 2 3 4 5 6 7 8 9 10 11 12 13 14 15 16 17 18 19 20 21 22 23 24 25 26 27 28 29 30 31 32 33 34 35 36 37 38 39 40 41 42 43 44 45 46 47 48 49 50
000
ASUS43 KJKL 251410
RWRJKL

EAST KENTUCKY HOURLY WEATHER ROUNDUP
NATIONAL WEATHER SERVICE JACKSON KY
1000 AM EDT THU MAY 25 2017

NOTE: "FAIR" INDICATES FEW OR NO CLOUDS BELOW 12,000 FEET WITH
NO SIGNIFICANT WEATHER AND/OR OBSTRUCTIONS TO VISIBILITY.

* THESE REPORTS ARE NOT UNDER NWS QUALITY CONTROL AND MAY NOT
  REPORT WEATHER SUCH AS PRECIPITATION AND FOG.

KYZ079-080-083-085-087-088-110-112-115-119-120-251500
...EASTERN KENTUCKY...

CITY           SKY/WX    TMP DP  RH WIND       PRES   REMARKS
JACKSON        LGT RAIN  53  52  96 VRB3      29.56R FOG
LONDON         LGT RAIN  54  51  90 SW9       29.59R
SOMERSET*      LGT RAIN  54  54 100 W14       29.61S
MONTICELLO*    LGT RAIN  56  54  93 W22G28    29.64R
WILLIAMSBURG*  CLOUDY    54  54 100 SW8       29.62R
MIDDLESBORO*   CLOUDY    54  53  96 CALM      29.64R
HARLAN APT*    CLOUDY    52  50  93 CALM      29.62R
PIKE CO APT*   CLOUDY    54  52  93 S5        29.57S
BIG SANDY APT* DRIZZLE   54  53  97 SW8       29.56S
MOREHEAD APT*  RAIN      55  54  94 SW13G21   29.52S
$$

KYZ035-036-041-042-044-050-067-078-099-251500
...CENTRAL KENTUCKY...

CITY           SKY/WX    TMP DP  RH WIND       PRES   REMARKS
MT STERLING*   RAIN      55  54  94 SW9       29.52S
FLEMING/MASON* RAIN      55  55  99 SW10G17   29.48S
DANVILLE*      DRIZZLE   55  54  94 W10G17    29.57R
LEXINGTON      RAIN      57  54  89 W14G26    29.51R FOG
FRANKFORT      LGT RAIN  58  54  86 SW12G17   29.49R FOG
LOUISVILLE     LGT RAIN  60  56  86 W17G23    29.52R
LEBANON*       CLOUDY    57  57 100 SW9G16    29.56S FOG
GLASGOW*       CLOUDY    56  56 100 W10       29.63S
BOWLING GREEN  CLOUDY    60  56  86 W10       29.65R
$$

KYZ091>093-OHZ055-061-077-WVZ005-015-034-035-042-251500
...SOUTHERN OHIO/WEST VIRGINIA...

CITY           SKY/WX    TMP DP  RH WIND       PRES   REMARKS
COVINGTON      CLOUDY    58  57  97 W13       29.43R FOG
COLUMBUS       CLOUDY    60  60 100 S8        29.44R
DAYTON         CLOUDY    61  57  87 W3        29.43R
WILMINGTON     LGT RAIN  58  58 100 S6        29.43R
HUNTINGTON     CLOUDY    58  52  80 S12G22    29.51R
CHARLESTON     CLOUDY    60  50  69 SW15G24   29.52R
PINEVILLE*     CLOUDY    58  51  78 MISG      29.62F
BECKLEY        PTSUNNY   55  47  74 SW12      29.57F
BLUEFIELD      PTSUNNY   55  45  68 SW18G24   29.60S
LOGAN CO APT*  CLOUDY    55  50  82 VRB7G16   29.55S
$$

VAZ002-007-008-TNZ017-027-036-066-071-251500
...SOUTHWEST VIRGINIA/EAST TENNESSEE...

CITY           SKY/WX    TMP DP  RH WIND       PRES   REMARKS
WISE*          CLOUDY    52  52 100 SW10G16   29.63R
JONESVILLE*    LGT RAIN  55  50  82 SW5       29.65R
ABINGDON*      CLOUDY    55  51  86 W9        29.64S
BRISTOL        CLOUDY    57  51  80 SW12G17   29.64S
MORRISTOWN*    CLOUDY    59  52  77 SW13G23   29.64S
SEVIERVILLE*   PTSUNNY   61  52  72 SW13      29.67R
LAFOLLETTE*    CLOUDY    57  52  82 CALM      29.67S
OAK RIDGE      LGT RAIN  58  53  84 VRB5      29.68R
CROSSVILLE     CLOUDY    53  49  86 W9        29.70R
NASHVILLE      CLOUDY    59  53  80 W7        29.71R
$$

...KEY TO REMARKS...
VSB - VISIBILITY IN MILES
WCI - WIND CHILL INDEX
HX  - HEAT INDEX

$$



USA.gov is the U.S. government's official web portal to all federal, state and local government web resources and services.